GW3691 Weather Reports


Display with metric or nautical units.
time (UTC)temp
F
wind
direction
speed
MPH
gust
MPH
rain 1hr
in
rain 24hr
in
rain mn
in
humidity
%
barometer
mb
20260510174204 84 142 3.0 3.0 0.00 0.00 0.00 76 1019.6
20260510173700 83 209 1.0 1.0 0.00 0.00 0.00 78 1019.9
20260510173156 84 141 0.0 1.0 0.00 0.00 0.00 77 1020.0
20260510172652 86 124 1.0 1.0 0.00 0.00 0.00 73 1020.0
20260510172148 89 354 3.0 6.0 0.00 0.00 0.00 64 1019.9
20260510171645 90 178 1.0 2.0 0.00 0.00 0.00 61 1019.8
20260510171143 90 165 0.0 1.0 0.00 0.00 0.00 62 1019.8
20260510170639 89 184 2.0 2.0 0.00 0.00 0.00 63 1019.8
20260510170135 89 164 1.0 1.0 0.00 0.00 0.00 62 1019.7
20260510165631 88 168 0.0 0.0 0.00 0.00 0.00 59 1020.0
20260510165127 88 220 3.0 3.0 0.00 0.00 0.00 64 1019.9
20260510164626 88 180 0.0 0.0 0.00 0.00 0.00 67 1019.9
20260510164122 87 72 3.0 3.0 0.00 0.00 0.00 67 1020.1
20260510163617 86 212 2.0 2.0 0.00 0.00 0.00 68 1020.2
20260510163114 87 164 1.0 1.0 0.00 0.00 0.00 70 1020.3
20260510162614 85 214 2.0 2.0 0.00 0.00 0.00 71 1020.5
20260510162111 85 188 3.0 3.0 0.00 0.00 0.00 71 1020.6
20260510161606 85 184 0.0 0.0 0.00 0.00 0.00 71 1020.4
20260510161104 85 194 2.0 2.0 0.00 0.00 0.00 72 1020.4
20260510160601 85 245 3.0 3.0 0.00 0.00 0.00 71 1020.4
20260510160100 85 234 1.0 2.0 0.00 0.00 0.00 71 1020.6
20260510155557 85 187 1.0 2.0 0.00 0.00 0.00 72 1020.4
20260510155053 86 210 2.0 2.0 0.00 0.00 0.00 72 1020.5
20260510154549 84 172 0.0 0.0 0.00 0.00 0.00 74 1020.6
20260510154044 84 167 0.0 1.0 0.00 0.00 0.00 75 1020.6
20260510153539 84 202 2.0 2.0 0.00 0.00 0.00 75 1020.8
20260510153036 83 243 3.0 3.0 0.00 0.00 0.00 75 1020.7
20260510152533 84 167 1.0 2.0 0.00 0.00 0.00 74 1020.6
20260510152029 84 226 3.0 3.0 0.00 0.00 0.00 73 1020.8
20260510151526 84 215 1.0 2.0 0.00 0.00 0.00 76 1020.4
20260510151024 83 196 3.0 3.0 0.00 0.00 0.00 76 1020.8
20260510150519 82 174 0.0 1.0 0.00 0.00 0.00 78 1020.5
20260510150015 82 180 1.0 1.0 0.00 0.00 0.00 77 1020.7
20260510145512 82 195 0.0 1.0 0.00 0.00 0.00 78 1020.5
20260510145008 82 163 1.0 1.0 0.00 0.00 0.00 78 1020.4
20260510144505 82 196 0.0 1.0 0.00 0.00 0.00 78 1020.2
20260510144001 82 170 0.0 0.0 0.00 0.00 0.00 79 1020.3
20260510143456 82 165 0.0 1.0 0.00 0.00 0.00 80 1020.4
20260510142953 81 171 0.0 0.0 0.00 0.00 0.00 80 1020.5
20260510142450 81 207 1.0 2.0 0.00 0.00 0.00 79 1020.2
20260510141947 81 163 1.0 2.0 0.00 0.00 0.00 80 1020.6
20260510141443 81 174 0.0 1.0 0.00 0.00 0.00 81 1020.3
20260510140941 81 209 2.0 3.0 0.00 0.00 0.00 82 1020.3
20260510140437 81 212 1.0 2.0 0.00 0.00 0.00 83 1020.0
20260510135936 80 189 2.0 3.0 0.00 0.00 0.00 83 1020.1
20260510135432 80 161 1.0 1.0 0.00 0.00 0.00 87 1019.9
20260510134929 78 160 0.0 1.0 0.00 0.00 0.00 88 1019.9
20260510134426 77 169 1.0 2.0 0.00 0.00 0.00 91 1019.9
20260510133922 77 161 1.0 1.0 0.00 0.00 0.00 93 1020.0
20260510133419 76 156 0.0 0.0 0.00 0.00 0.00 95 1019.8
20260510132914 75 180 1.0 2.0 0.00 0.00 0.00 95 1019.7
20260510132412 75 187 0.0 0.0 0.00 0.00 0.00 96 1020.0
20260510131909 75 165 0.0 0.0 0.00 0.00 0.00 96 1019.7
20260510131406 75 165 0.0 0.0 0.00 0.00 0.00 97 1019.9
20260510130903 75 161 0.0 0.0 0.00 0.00 0.00 97 1019.6
20260510130400 75 170 0.0 0.0 0.00 0.00 0.00 97 1019.8
20260510125857 74 190 0.0 0.0 0.00 0.00 0.00 97 1019.7
20260510125353 74 176 0.0 0.0 0.00 0.00 0.00 97 1019.9
20260510124850 74 172 0.0 0.0 0.00 0.00 0.00 97 1019.7
20260510124346 74 171 0.0 0.0 0.00 0.00 0.00 97 1019.5
20260510123842 74 198 0.0 0.0 0.00 0.00 0.00 97 1019.6
20260510123338 74 165 0.0 0.0 0.00 0.00 0.00 98 1019.4
20260510122834 74 162 0.0 0.0 0.00 0.00 0.00 98 1019.4
20260510122330 74 169 0.0 0.0 0.00 0.00 0.00 98 1019.6
20260510121827 73 166 0.0 0.0 0.00 0.00 0.00 98 1019.4
20260510121325 73 160 0.0 0.0 0.00 0.00 0.00 98 1019.1
20260510120822 73 171 0.0 0.0 0.00 0.00 0.00 98 1019.2
20260510120319 72 171 0.0 0.0 0.00 0.00 0.00 98 1019.2
20260510115814 72 171 0.0 0.0 0.00 0.00 0.00 98 1018.9
20260510115312 72 171 0.0 0.0 0.00 0.00 0.00 98 1019.1
20260510114807 71 171 0.0 0.0 0.00 0.00 0.00 98 1018.9
20260510114305 71 171 0.0 0.0 0.00 0.00 0.00 98 1019.1
20260510113800 70 171 0.0 0.0 0.00 0.00 0.00 98 1018.8
20260510113257 70 171 0.0 0.0 0.00 0.00 0.00 98 1018.8
20260510112753 70 171 0.0 0.0 0.00 0.00 0.00 98 1018.7
20260510112250 70 171 0.0 0.0 0.00 0.00 0.00 98 1018.6
20260510111746 70 171 0.0 0.0 0.00 0.00 0.00 98 1018.8
20260510111243 69 171 0.0 0.0 0.00 0.00 0.00 98 1018.3
20260510110742 69 171 0.0 0.0 0.00 0.00 0.00 98 1018.1
20260510110241 69 171 0.0 0.0 0.00 0.00 0.00 98 1018.4
20260510105741 69 171 0.0 0.0 0.00 0.00 0.00 98 1018.3
20260510105235 69 171 0.0 0.0 0.00 0.00 0.00 98 1018.3
20260510104732 69 171 0.0 0.0 0.00 0.00 0.00 98 1018.2
20260510104230 69 171 0.0 0.0 0.00 0.00 0.00 98 1018.3
20260510103726 69 171 0.0 0.0 0.00 0.00 0.00 98 1018.0
20260510103224 69 171 0.0 0.0 0.00 0.00 0.00 98 1018.0
20260510102722 70 171 0.0 0.0 0.00 0.00 0.00 98 1017.8
20260510102218 70 172 0.0 0.0 0.00 0.00 0.00 98 1017.9
20260510101716 70 172 0.0 0.0 0.00 0.00 0.00 98 1017.8
20260510101214 70 176 0.0 0.0 0.00 0.00 0.00 98 1017.8
20260510100710 70 168 0.0 0.0 0.00 0.00 0.00 98 1017.4
20260510100208 70 168 0.0 0.0 0.00 0.00 0.00 98 1017.6
20260510095703 70 168 0.0 0.0 0.00 0.00 0.00 97 1017.7
20260510095158 70 168 0.0 0.0 0.00 0.00 0.00 97 1017.4
20260510094657 70 168 0.0 0.0 0.00 0.00 0.00 97 1017.5
20260510094153 70 168 0.0 0.0 0.00 0.00 0.00 97 1017.5
20260510093649 70 168 0.0 0.0 0.00 0.00 0.00 97 1017.5
20260510093147 70 168 0.0 0.0 0.00 0.00 0.00 97 1017.6
20260510092643 70 167 0.0 0.0 0.00 0.00 0.00 97 1017.3
20260510092138 70 167 0.0 0.0 0.00 0.00 0.00 97 1017.5
20260510091635 70 167 0.0 0.0 0.00 0.00 0.00 97 1017.2
20260510091131 71 167 0.0 0.0 0.00 0.00 0.00 97 1017.2
20260510090628 71 167 0.0 0.0 0.00 0.00 0.00 97 1017.1
20260510090124 71 167 0.0 0.0 0.00 0.00 0.00 97 1017.0
20260510085614 71 167 0.0 0.0 0.00 0.00 0.00 97 1017.2
20260510085110 71 167 0.0 0.0 0.00 0.00 0.00 97 1016.9
20260510084606 71 167 0.0 0.0 0.00 0.00 0.00 97 1017.0
20260510084103 71 165 0.0 0.0 0.00 0.00 0.00 97 1016.8
20260510083600 71 164 0.0 0.0 0.00 0.00 0.00 97 1017.0
20260510083056 71 165 0.0 0.0 0.00 0.00 0.00 97 1016.8
20260510082553 71 165 0.0 0.0 0.00 0.00 0.00 97 1016.7
20260510082048 71 164 0.0 0.0 0.00 0.00 0.00 97 1017.0
20260510081543 71 164 0.0 0.0 0.00 0.00 0.00 97 1016.9
20260510081039 71 164 0.0 0.0 0.00 0.00 0.00 97 1016.7
20260510080538 71 165 0.0 0.0 0.00 0.00 0.00 97 1016.7
20260510080036 71 165 0.0 0.0 0.00 0.00 0.00 97 1016.7
20260510075533 71 164 0.0 0.0 0.00 0.00 0.00 97 1016.6
20260510075030 71 164 0.0 0.0 0.00 0.00 0.00 97 1016.8
20260510074528 71 172 0.0 0.0 0.00 0.00 0.00 97 1016.9
20260510074023 71 167 0.0 0.0 0.00 0.00 0.00 97 1017.1
20260510073519 71 164 0.0 0.0 0.00 0.00 0.00 97 1017.0
20260510073016 71 164 0.0 0.0 0.00 0.00 0.00 97 1017.0
20260510072512 71 164 0.0 0.0 0.00 0.00 0.00 97 1017.1
20260510072007 71 164 0.0 0.0 0.00 0.00 0.00 97 1017.1
20260510071504 71 164 0.0 0.0 0.00 0.00 0.00 97 1017.0
20260510071002 71 164 0.0 0.0 0.00 0.00 0.00 97 1017.0
20260510070454 71 164 0.0 0.0 0.00 0.00 0.00 97 1017.0
20260510065949 71 164 0.0 0.0 0.00 0.00 0.00 97 1017.0
20260510065447 71 164 0.0 0.0 0.00 0.00 0.00 97 1017.2
20260510064942 71 164 0.0 0.0 0.00 0.00 0.00 97 1017.2
20260510064440 71 164 0.0 0.0 0.00 0.00 0.00 97 1017.4
20260510063937 71 164 0.0 0.0 0.00 0.00 0.00 97 1017.4
20260510063432 71 165 0.0 0.0 0.00 0.00 0.00 97 1017.6
20260510062930 71 165 0.0 0.0 0.00 0.00 0.00 97 1017.6
20260510062425 71 165 0.0 0.0 0.00 0.00 0.00 97 1017.8
20260510061921 71 165 0.0 0.0 0.00 0.00 0.00 97 1017.6
20260510061418 71 170 0.0 0.0 0.00 0.00 0.00 97 1017.7
20260510060914 71 172 0.0 0.0 0.00 0.00 0.00 97 1017.9
20260510060410 71 177 0.0 0.0 0.00 0.00 0.00 97 1017.7
20260510055907 71 151 0.0 0.0 0.00 0.00 0.00 97 1018.0
20260510055402 71 167 0.0 0.0 0.00 0.00 0.00 97 1017.9
20260510054900 71 152 0.0 0.0 0.00 0.00 0.00 97 1018.2
20260510054355 71 156 0.0 0.0 0.00 0.00 0.00 97 1018.2
20260510053851 71 157 0.0 0.0 0.00 0.00 0.00 97 1018.1
20260510053346 71 156 0.0 0.0 0.00 0.00 0.00 97 1018.2
20260510052838 71 156 0.0 0.0 0.00 0.00 0.00 97 1018.1
20260510052333 71 156 0.0 0.0 0.00 0.00 0.00 97 1018.4
20260510051830 70 155 0.0 0.0 0.00 0.00 0.00 97 1018.3
20260510051327 70 154 0.0 0.0 0.00 0.00 0.00 97 1018.1
20260510050824 70 160 0.0 0.0 0.00 0.00 0.00 97 1018.5
20260510050320 70 160 0.0 0.0 0.00 0.00 0.00 97 1018.2
20260510045818 70 160 0.0 0.0 0.00 0.00 0.00 97 1018.8
20260510045314 70 160 0.0 0.0 0.00 0.00 0.00 97 1018.7
20260510044811 70 160 0.0 0.0 0.00 0.00 0.00 97 1018.6
20260510044308 70 160 0.0 0.0 0.00 0.00 0.00 97 1018.7
20260510043804 70 160 0.0 0.0 0.00 0.00 0.00 97 1018.5
20260510043300 71 160 0.0 0.0 0.00 0.00 0.00 97 1018.5
20260510042758 71 160 0.0 0.0 0.00 0.00 0.00 97 1018.6
20260510042253 71 160 0.0 0.0 0.00 0.00 0.00 97 1018.8
20260510041744 71 160 0.0 0.0 0.00 0.00 0.00 97 1018.7
20260510041241 71 160 0.0 0.0 0.00 0.00 0.00 97 1018.8
20260510040738 71 160 0.0 0.0 0.00 0.00 0.00 97 1018.9
20260510040230 71 160 0.0 0.0 0.00 0.00 0.00 97 1018.6
20260510035725 71 160 0.0 0.0 0.00 0.48 0.48 97 1018.7
20260510035221 71 160 0.0 0.0 0.00 0.48 0.48 97 1018.8
20260510034717 71 160 0.0 0.0 0.00 0.48 0.48 97 1018.9
20260510034216 71 160 0.0 0.0 0.00 0.48 0.48 97 1018.7
20260510033711 71 160 0.0 0.0 0.00 0.48 0.48 97 1018.8
20260510033210 71 160 0.0 0.0 0.00 0.48 0.48 97 1018.8
20260510032705 71 160 0.0 0.0 0.00 0.48 0.48 97 1018.6
20260510032201 71 160 0.0 0.0 0.00 0.48 0.48 97 1018.8
20260510031655 71 160 0.0 0.0 0.00 0.48 0.48 97 1018.7
20260510031152 72 160 0.0 0.0 0.00 0.48 0.48 97 1018.7
20260510030647 72 160 0.0 0.0 0.00 0.48 0.48 97 1018.7
20260510030145 72 160 0.0 0.0 0.00 0.48 0.48 97 1018.5
20260510025642 72 160 0.0 0.0 0.00 0.48 0.48 97 1018.8
20260510025139 72 160 0.0 0.0 0.00 0.48 0.48 96 1018.8
20260510024636 72 160 0.0 0.0 0.00 0.48 0.48 96 1018.6
20260510024132 72 159 0.0 0.0 0.00 0.48 0.48 96 1018.5
20260510023628 72 159 0.0 0.0 0.00 0.48 0.48 96 1018.3
20260510023125 72 159 0.0 0.0 0.00 0.48 0.48 96 1018.3
20260510022619 72 159 0.0 0.0 0.00 0.48 0.48 96 1018.4
20260510022114 72 172 0.0 0.0 0.00 0.48 0.48 96 1018.4
20260510021610 72 172 0.0 0.0 0.00 0.48 0.48 96 1018.3
20260510021108 72 171 0.0 0.0 0.00 0.48 0.48 96 1018.2
20260510020602 72 171 0.0 0.0 0.00 0.48 0.48 96 1017.9
20260510020057 72 172 0.0 0.0 0.00 0.48 0.48 96 1018.3
20260510015553 72 172 0.0 0.0 0.00 0.48 0.48 96 1018.2
20260510015049 72 171 0.0 0.0 0.00 0.48 0.48 96 1018.0
20260510014546 72 158 0.0 0.0 0.00 0.48 0.48 96 1018.0
20260510014043 72 166 0.0 0.0 0.00 0.48 0.48 96 1017.6
20260510013538 72 153 0.0 0.0 0.00 0.48 0.48 96 1017.8
20260510013034 72 170 0.0 0.0 0.00 0.48 0.48 96 1018.0
20260510012528 72 170 0.0 0.0 0.00 0.48 0.48 96 1017.9
20260510012024 73 170 0.0 0.0 0.00 0.48 0.48 96 1017.8
20260510011519 72 170 0.0 0.0 0.00 0.48 0.48 96 1017.8
20260510011014 73 170 0.0 0.0 0.00 0.48 0.48 96 1017.9
20260510010512 73 171 0.0 0.0 0.00 0.48 0.48 96 1017.9
20260510010009 72 170 0.0 0.0 0.00 0.48 0.48 96 1017.7
20260510005504 72 171 0.0 0.0 0.00 0.48 0.48 96 1017.6
20260510005002 73 171 0.0 0.0 0.00 0.48 0.48 96 1017.7
20260510004459 73 171 0.0 0.0 0.00 0.48 0.48 96 1017.9
20260510003957 73 169 0.0 0.0 0.00 0.48 0.48 96 1017.6
20260510003454 73 169 0.0 0.0 0.00 0.48 0.48 95 1017.6
20260510002949 73 169 0.0 0.0 0.00 0.48 0.48 95 1017.5
20260510002445 73 169 0.0 0.0 0.00 0.48 0.48 95 1017.3
20260510001941 73 169 0.0 0.0 0.00 0.48 0.48 95 1017.2
20260510001439 73 169 0.0 0.0 0.00 0.48 0.48 95 1017.1
20260510000936 73 169 0.0 0.0 0.00 0.48 0.48 95 1017.4
20260510000433 73 169 0.0 0.0 0.00 0.48 0.48 95 1017.1
20260509235929 74 169 0.0 0.0 0.00 0.48 0.48 95 1016.8
20260509235426 74 169 0.0 0.0 0.00 0.48 0.48 95 1016.9
20260509234922 74 169 0.0 0.0 0.00 0.48 0.48 95 1017.0
20260509234419 74 169 0.0 0.0 0.00 0.48 0.48 95 1016.8
20260509233917 74 170 0.0 0.0 0.00 0.48 0.48 95 1016.9
20260509233415 74 155 0.0 0.0 0.00 0.48 0.48 95 1016.7
20260509232911 74 154 0.0 0.0 0.00 0.48 0.48 95 1017.0
20260509232409 74 154 0.0 0.0 0.00 0.48 0.48 95 1016.9
20260509231904 74 154 0.0 0.0 0.00 0.48 0.48 95 1017.0
20260509231401 74 151 0.0 0.0 0.00 0.48 0.48 95 1016.9
20260509230859 74 155 0.0 0.0 0.00 0.48 0.48 95 1016.7
20260509230356 74 155 0.0 0.0 0.00 0.48 0.48 95 1016.8
20260509225851 74 156 0.0 0.0 0.00 0.48 0.48 95 1016.5
20260509225348 74 157 0.0 0.0 0.00 0.48 0.48 95 1016.6
20260509224844 74 159 0.0 0.0 0.00 0.48 0.48 95 1016.7
20260509224340 74 159 0.0 0.0 0.00 0.48 0.48 95 1016.7
20260509223837 74 159 0.0 0.0 0.00 0.48 0.48 95 1016.5
20260509223334 73 160 0.0 0.0 0.00 0.48 0.48 95 1016.6
20260509222831 73 164 0.0 0.0 0.00 0.48 0.48 95 1016.4
20260509222326 74 172 0.0 0.0 0.00 0.48 0.48 95 1016.7
20260509221822 74 170 0.0 0.0 0.00 0.48 0.48 95 1016.4
20260509221320 73 170 0.0 0.0 0.00 0.48 0.48 95 1016.4
20260509220819 74 171 0.0 0.0 0.00 0.48 0.48 95 1016.5
20260509220315 73 170 0.0 0.0 0.00 0.48 0.48 95 1016.4
20260509215811 73 164 0.0 0.0 0.00 0.48 0.48 95 1016.6
20260509215308 73 164 0.0 0.0 0.00 0.48 0.48 95 1016.5
20260509214805 73 147 1.0 1.0 0.00 0.48 0.48 95 1016.4
20260509214302 73 171 0.0 0.0 0.00 0.48 0.48 95 1016.4
20260509213759 73 171 1.0 1.0 0.00 0.48 0.48 95 1016.5
20260509213254 74 180 1.0 2.0 0.00 0.48 0.48 95 1016.1
20260509212752 75 177 1.0 1.0 0.00 0.48 0.48 95 1016.5
20260509212249 75 153 0.0 0.0 0.00 0.48 0.48 95 1016.4
20260509211745 75 168 0.0 0.0 0.00 0.48 0.48 95 1016.5
20260509211242 75 169 0.0 0.0 0.00 0.48 0.48 95 1016.3
20260509210738 74 167 0.0 0.0 0.00 0.48 0.48 95 1016.6
20260509210237 74 167 0.0 0.0 0.00 0.48 0.48 95 1016.7
20260509205735 74 169 0.0 0.0 0.00 0.48 0.48 95 1016.6
20260509205230 74 170 0.0 0.0 0.00 0.48 0.48 95 1016.7
20260509204726 73 181 1.0 1.0 0.00 0.48 0.48 94 1016.5
20260509204223 73 149 0.0 0.0 0.00 0.48 0.48 94 1016.3
20260509203719 74 143 0.0 0.0 0.00 0.48 0.48 94 1016.5
20260509203217 74 160 0.0 0.0 0.00 0.48 0.48 94 1016.3
20260509202712 73 153 0.0 0.0 0.00 0.48 0.48 94 1016.1
20260509202208 74 155 0.0 0.0 0.00 0.48 0.48 94 1016.3
20260509201703 73 165 0.0 0.0 0.00 0.48 0.48 93 1016.0
20260509201200 73 185 1.0 1.0 0.00 0.48 0.48 93 1016.0
20260509200656 73 173 0.0 0.0 0.00 0.48 0.48 93 1016.4
20260509200152 74 151 1.0 1.0 0.35 0.48 0.48 93 1016.2
20260509195648 74 177 3.0 3.0 1.44 0.48 0.48 92 1016.1
20260509195143 75 186 1.0 2.0 1.18 0.34 0.34 91 1016.9
20260509194642 77 198 8.0 9.0 1.02 0.24 0.24 90 1016.7
20260509194140 78 174 1.0 1.0 0.78 0.16 0.16 88 1016.1
20260509193635 81 181 0.0 0.0 0.35 0.06 0.06 85 1016.1
20260509193126 83 152 0.0 0.0 0.12 0.02 0.02 82 1016.0
20260509192623 84 170 0.0 0.0 0.00 0.00 0.00 77 1015.9
20260509192118 84 167 0.0 0.0 0.00 0.00 0.00 71 1015.5
20260509191612 85 166 0.0 0.0 0.00 0.00 0.00 71 1015.6
20260509191109 85 165 0.0 0.0 0.00 0.00 0.00 69 1015.7
20260509190606 85 153 0.0 0.0 0.00 0.00 0.00 69 1015.6
20260509190103 86 154 0.0 0.0 0.00 0.00 0.00 70 1015.8
20260509185601 86 156 0.0 0.0 0.00 0.00 0.00 66 1015.7
20260509185056 87 165 0.0 0.0 0.00 0.00 0.00 66 1015.9
20260509184555 87 109 0.0 1.0 0.00 0.00 0.00 66 1015.9
20260509184051 88 106 1.0 1.0 0.00 0.00 0.00 65 1015.8
20260509183547 87 152 0.0 1.0 0.00 0.00 0.00 67 1016.1
20260509183043 87 180 2.0 2.0 0.00 0.00 0.00 67 1016.4
20260509182539 87 171 0.0 0.0 0.00 0.00 0.00 67 1016.2
20260509182036 86 192 2.0 2.0 0.00 0.00 0.00 65 1016.3
20260509181534 87 170 3.0 5.0 0.00 0.00 0.00 64 1016.4
20260509181031 87 186 3.0 3.0 0.00 0.00 0.00 67 1016.5
20260509180527 87 215 0.0 0.0 0.00 0.00 0.00 65 1016.5
20260509180025 87 168 1.0 1.0 0.00 0.00 0.00 68 1016.8
20260509175520 87 281 3.0 5.0 0.00 0.00 0.00 68 1016.7
20260509175017 86 172 0.0 0.0 0.00 0.00 0.00 68 1016.7
20260509174514 87 179 1.0 1.0 0.00 0.00 0.00 70 1016.9